Regional Weather Roundup
Issued by NWS Burlington, VT

Current Version | Previous Version | Text Only | Print | Product List | Glossary On
Versions: 1 2 3 4 5 6 7 8 9 10 11 12 13 14 15 16 17 18 19 20 21 22 23 24 25 26 27 28 29 30 31 32 33 34 35 36 37 38 39 40 41 42 43 44 45 46 47 48 49 50
000 ASUS41 KBTV 201530 RWRBTV VERMONT REGIONAL WEATHER ROUNDUP NATIONAL WEATHER SERVICE BURLINGTON VT 1100 AM EDT SUN AUG 20 2017 NOTE: "FAIR" INDICATES FEW OR NO CLOUDS BELOW 12,000 FEET WITH NO SIGNIFICANT WEATHER AND/OR OBSTRUCTIONS TO VISIBILITY. * THESE REPORTS ARE NOT UNDER NWS QUALITY CONTROL AND/OR DO NOT REPORT WEATHER SUCH AS PRECIPITATION AND FOG. VTZ001>019-201600- _____VERMONT_____ CITY SKY/WX TMP DP RH WIND PRES REMARKS BURLINGTON PTSUNNY 74 57 55 NW6 30.01R MONTPELIER CLOUDY 67 56 67 NW10 30.05R MORRISVILLE MOSUNNY 68 55 63 NW7 30.02R ST. JOHNSBURY* N/A 70 57 63 MISG 29.97R LYNDONVILLE* PTSUNNY 68 56 66 W10G18 30.01R MIDDLEBURY* FAIR 71 57 60 NW5 30.02R RUTLAND* PTSUNNY 71 58 63 NW10G17 30.02R SPRINGFIELD PTSUNNY 72 54 53 NW8 30.00R HIGHGATE* FAIR 71 59 64 NW5 30.00R NEWPORT* FAIR 67 58 73 W8G20 30.01R BENNINGTON PTSUNNY 72 60 66 W10 30.03R SUTTON* N/A 66 N/A N/A MISG N/A ISLAND POND* N/A 64 N/A N/A NW8 N/A GALLUP MILLS* N/A 68 N/A N/A MISG N/A UNION VILLAGE* N/A 73 N/A N/A MISG N/A MT. MANSFIELD* N/A 52 N/A N/A W31 N/A _____LAKE CHAMPLAIN_____ CITY SKY/WX TMP DP RH WIND PRES REMARKS BURTON ISLAND* N/A 72 59 64 MISG N/A COLCHESTER RF* N/A 72 57 60 NW8 N/A DIAMOND ISL* N/A 72 55 56 W9 N/A $$ NYZ007-026>031-035-052-083-087-201600- _____NORTHERN NEW YORK_____ CITY SKY/WX TMP DP RH WIND PRES REMARKS PLATTSBURGH SUNNY 75 55 49 W10 29.99S SARANAC LAKE PTSUNNY 67 56 67 MISG 30.05R MASSENA SUNNY 74 62 66 W10 30.02S OGDENSBURG* FAIR 76 61 59 SW10 30.02S POTSDAM* MOSUNNY 73 63 68 W8 30.03S STARK FALLS* N/A 68 N/A N/A W9 N/A WATERTOWN SUNNY 72 65 78 SW9 30.06R FT DRUM MOSUNNY 72 61 68 W9 30.06R ALBANY PTSUNNY 74 59 59 NW8 30.04R GLENS FALLS MOSUNNY 74 57 55 N6 30.02R $$ NHZ002-005-011-201600- _____NEW HAMPSHIRE_____ CITY SKY/WX TMP DP RH WIND PRES REMARKS LEBANON MOSUNNY 75 57 53 NW10G21 29.98R KEENE N/A N/A N/A N/A MISG N/A MT WASHINGTON FOG 46 46 100 NW56G62 N/A VSB 0 PLYMOUTH FAIR 74 55 51 NW9 29.96R WHITEFIELD CLOUDY 69 56 62 NW12 29.98R $$ _____REGIONAL QUEBEC LOCATIONS_____ CITY SKY/WX TMP DP RH WIND PRES REMARKS MONTREAL MOSUNNY 72 59 64 W17 29.97S QUEBEC CITY MOSUNNY 72 57 60 W9G20 29.87R SHERBROOKE MOSUNNY 68 59 73 W16G23 29.95R _____REGIONAL ONTARIO LOCATIONS_____ CITY SKY/WX TMP DP RH WIND PRES REMARKS OTTAWA MOSUNNY 72 63 73 W10 30.01R ______KEY______ VSB - VISIBILITY IN MILES WCI - WIND CHILL INDEX HX - HEAT INDEX $$ NNNN

USA.gov is the U.S. government's official web portal to all federal, state and local government web resources and services.